Guaymas, México

1:14 AM MST en Junio 19, 2018 (GMT -0700)
Gen Jose Ma Yanez International

Tiempo Historia de MMGM - Marzo, 2018

Change the Weather History Date:

Miércoles, Marzo 14, 2018

  Actual Average Record
Temperature  
Temperatura media 73 ° F -  
Temperatura máxima 80 ° F 80 ° F 92 ° F (2015)
Temperatura mínima 66 ° F 58 ° F 50 ° F (1997)
Cooling Degree Days 8    
Growing Degree Days 23 (Base 50)    
Moisture  
Punto de rocío 56 ° F    
Average Humidity 48    
Maximum Humidity 57    
Minimum Humidity 23    
Precipitación  
Precipitación 0.00 pul - - ()
Presión al nivel del mar  
Presión al nivel del mar 29.89 pul    
Viento  
Velocidad del viento 5 mph ()    
Velocidad máxima del viento 17 mph    
Max Gust Speed -    
Visibilidad 10.0 Millas    
Eventos      
Averages and records for this station are not official NWS values.
T = Trace of Precipitation, MM = Missing Value Source: Averaged Metar Reports

Daily Weather History Graph

Daily Weather History Graph

Search for Another Location

Airport or City:

Astronomía

Mar. 14, 2018 Salida Puesta
Hora real 6:34 AM MST 6:31 PM MST
Crepúsculo civil 6:10 AM MST 6:55 PM MST
Crepúsculo náutico 5:43 AM MST 7:22 PM MST
Crepúsculo astronómico 5:16 AM MST 7:49 PM MST
Luna 4:54 AM MST (3/14) 4:10 PM MST (3/14)
Horas de luz 12h 44m
Horas de luz
11h 57m
Creciente menguante, 8% of the Moon is Illuminated
Mar 14
Creciente menguante
Mar 17
Nueva
Mar 24
Cuarto creciente
Mar 31
Luna llena
Abr 8
Cuarto menguante

Hourly Weather History & Observations

Hora (MST) Temp. Índice de calor Punto de rocío Humedad Presión Visibilidad Wind Dir Velocidad del viento Velocidad de ráfagas Precip Eventos Condiciones
2:00 AM 75 ° F - 45 ° F 23% 29.88 pul - ONO 6.7 mph - -  
5:00 AM 66 ° F - 53 ° F 52% 29.88 pul - NNE 4.5 mph - -  
7:07 AM 71.6 ° F - 53.6 ° F 53% 29.84 pul 10.0 mi Sin viento Sin viento - N/A   Muy nublado
7:40 AM 71.6 ° F - 53.6 ° F 53% 29.86 pul 10.0 mi Sin viento Sin viento - N/A   Muy nublado
8:00 AM 69 ° F - 51 ° F 43% 29.94 pul - ENE 2.2 mph - -  
8:40 AM 73.4 ° F - 55.4 ° F 53% 29.88 pul 10.0 mi Sin viento Sin viento - N/A   Muy nublado
9:40 AM 77.0 ° F - 57.2 ° F 50% 29.90 pul 10.0 mi Sin viento Sin viento - N/A   Muy nublado
10:40 AM 78.8 ° F - 59.0 ° F 51% 29.90 pul 10.0 mi SSO 9.2 mph - N/A   Muy nublado
11:00 AM 76 ° F - 57 ° F 42% 29.98 pul - Sur 6.7 mph - -  
11:49 AM 80.6 ° F 81.5 ° F 60.8 ° F 51% 29.90 pul 10.0 mi SSO 13.8 mph - N/A   Nublado
12:52 PM 80.6 ° F 81.5 ° F 60.8 ° F 51% 29.86 pul 10.0 mi SSO 11.5 mph - N/A   Nublado
1:42 PM 80.6 ° F 81.5 ° F 60.8 ° F 51% 29.87 pul 10.0 mi OSO 11.5 mph - N/A   Nublado
2:00 PM 77 ° F - 56 ° F 39% 29.94 pul - SSO 4.5 mph - -  
2:46 PM 77.0 ° F - 59.0 ° F 54% 29.87 pul 10.0 mi SSO 17.3 mph - N/A   Nublado
3:42 PM 77.0 ° F - 57.2 ° F 50% 29.87 pul 10.0 mi SSO 11.5 mph - N/A   Nublado
4:44 PM 77.0 ° F - 57.2 ° F 50% 29.86 pul 10.0 mi SSO 11.5 mph - N/A   Nublado
5:52 PM 78.8 ° F - 57.2 ° F 47% 29.85 pul 10.0 mi Sin viento Sin viento - N/A   Nublado
6:50 PM 77.0 ° F - 60.8 ° F 57% 29.85 pul 10.0 mi Sin viento Sin viento - N/A   Nublado
8:00 PM 73 ° F - 55 ° F 43% 29.93 pul - Oeste 2.2 mph - -  
11:00 PM 73 ° F - 54 ° F 41% 29.93 pul - ENE 2.2 mph - -